804  
ASUS46 KPDT 301910  
RWRPDT  
PENDLETON REGIONAL WEATHER ROUNDUP  
NATIONAL WEATHER SERVICE PENDLETON OREGON  
1200 PM PDT WED JUL 30 2014  
 
NOTE: FAIR INDICATES FEW OR NO CLOUDS BELOW 12,000 FEET WITH NO  
SIGNIFICANT WEATHER AND/OR S TO VISIBILITY
.  
 
# INDICATES UNOFFICIAL STATION AND DATA  
 
WAZ520-302010-  
EAST SLOPES OF WASHINGTON CASCADES  
 
CITY SKY/WX TMP DP RH WIND PRES REMARKS
 
#CLE ELUM HS N/A 80 45 29 W7 30.03S  
#CLE ELUM LAKE N/A 82 49 32 CALM 29.93S  
#CLIFFDEL 2NW N/A 82 37 20 NW6 N/A  
#EASTON DOT N/A 76 34 22 N7 N/A  
#ELK HTS DOT N/A 82 82 100 SW6 N/A  
#GLENWOOD N/A 83 62 49 CALM 29.95F  
#MANASTASH CYN N/A 83 48 30 CALM 30.07F  
#NELSON N/A 81 51 35 W2 29.97S  
#NELSON 3SW N/A 80 49 34 E2 30.15F  
#NILE N/A 86 38 18 W5 29.23F  
#PEOH POINT N/A 74 44 34 SW7 N/A  
#RONALD 2NW N/A 80 51 36 W1 29.99S  
#SOUTH BLEWITT N/A 81 48 32 CALM N/A  
#TROUT LAKE 1NE N/A 82 60 47 E5 29.95F  

 
 
WAZ521-302010-  
SIMCOE HIGHLANDS  
 
CITY SKY/WX TMP DP RH WIND PRES REMARKS
 
#BICKLETON HS N/A 88 39 18 SW2 30.15S  
#SATUS PASS DOT N/A 84 45 26 CALM N/A  
#CENTERVILLE 1SWN/A 87 50 28 W6 29.91F  
#GOLDENDALE 1NE N/A 85 43 23 SW3 N/A  
#GOLDENDALE 1S N/A 87 57 36 CALM 30.03S  
#GOLDENDALE 5WNWN/A 86 54 34 W7 29.93F  
#GOODNOE HILLS N/A 90 52 27 W16 29.96S HX 87  
#LYLE 6NE N/A 79 58 49 S6 29.95F  

 
 
WAZ026-302010-  
KITTITAS VALLEY  
 
CITY SKY/WX TMP DP RH WIND PRES REMARKS
 
ELLENSBURG AP SUNNY 93 44 19 NW12 30.04S HX 89  
#ELLENSBURG CWU N/A 89 46 23 N7 29.89S  
#ELLENSBURG 3NE N/A 87 48 26 N1 30.03F  
#ELLENSBURG 1E N/A 86 45 24 CALM N/A  
#KITTITAS 3S N/A 82 57 43 W5 29.92F  
#RYEGRASS DOT N/A 82 52 35 W12 N/A  
#THORP 6N N/A 84 44 25 NW8 29.95S  

 
 
WAZ027-302010-  
YAKIMA VALLEY  
 
CITY SKY/WX TMP DP RH WIND PRES REMARKS
 
YAKIMA AIRPORT SUNNY 94 41 16 CALM 30.00F HX 90  
YAKIMA-VAGABOND SUNNY 93 32 12 W6 30.02F HX 89  
#COWICHE 1N N/A 85 52 32 N1 30.14F  
#DONALD 2NE N/A 100 30 9 SE1 30.31F HX 95  
#GRANDVIEW N/A 89 52 28 CALM 29.94F  
#MOXEE 2E N/A 92 16 6 CALM 29.89F HX 88  
#NACHES 2SW N/A 90 47 23 N1 30.05S HX 87  
#TERRACE HTS N/A 94 45 19 S2 29.88F HX 90  
#TOPPENISH N/A 87 53 31 W3 29.85F  
#WAPATO 4NE N/A 100 30 9 SE1 30.31F HX 95  
#WEST VALLEY N/A 90 49 25 CALM 29.90F HX 87  
#W YAKIMA N/A 90 45 21 N2 29.91F HX 86  
#WHITE SWAN 5E N/A 88 54 31 NE2 29.93F  
#WILEY CITY 3W N/A 88 41 19 CALM 30.01F  
#ZILLAH DOT N/A 88 49 26 W5 N/A  

 
 
WAZ028-302010-  
LOWER COLUMBIA BASIN...WASHINGTON  
 
CITY SKY/WX TMP DP RH WIND PRES REMARKS
 
HANFORD MOSUNNY 96 37 13 E5 29.96F HX 91  
PASCO SUNNY 93 51 24 N5 29.96F HX 90  
PROSSER AWOS N/A 90 52 27 SW3 30.00F HX 87  
RICHLAND AWOS SUNNY 95 48 20 E7 29.96F HX 91  
#BASIN CITY 5SW N/A 91 59 34 CALM 29.97F HX 90  
#BENTON CITY N/A 90 57 33 W5 29.83S HX 89  
#CONNELL 5N N/A 90 50 26 W3 29.93S HX 87  
#CONNELL 5NW N/A 87 56 35 CALM 29.90S  
#ELTOPIA 6NW N/A 91 59 34 CALM 28.97S HX 90  
#KENNEWICK 3S N/A 92 63 38 CALM 29.93S HX 93  
#PASCO-BROADMOORN/A 97 51 21 CALM 29.83S HX 94  
#PATERSON N/A 87 56 35 SW1 29.93S  
#PROSSER DOT N/A 92 49 23 SW2 N/A HX 89  
#PROSSER N/A 91 44 20 NW2 29.92F HX 87  
#SAGEMOOR 2W N/A 89 54 31 CALM 29.80S  
#TOUCHET 2S N/A 95 55 26 W1 29.91F HX 93  
#WEST PASCO N/A 94 60 32 CALM 29.95S HX 94  

 
 
WAZ029-302010-  
FOOTHILLS OF THE BLUES...WASHINGTON  
 
CITY SKY/WX TMP DP RH WIND PRES REMARKS
 
WALLA WALLA AP PTCLDY 94 48 21 W8 30.02F HX 91  
#COLLEGE PLACE N/A 96 50 21 W2 29.98F HX 93  
#DAYTON SCHOOL N/A 92 48 22 SW3 30.02S HX 89  
#DELANEY DOT N/A 93 46 20 W2 N/A HX 89  
#LOWDEN 2SE N/A 94 57 29 N1 29.93F HX 93  
#PLEASANT VIEW 1N/A 93 51 24 S10 29.95F HX 90  
#PRESCOTT N/A 93 54 27 SW1 29.92F HX 91  
#SUDBURY N/A 94 N/A N/A CALM N/A  
#WHITMAN COLLEGEN/A 91 52 27 S3 29.97F HX 88  
#WAITSBURG 8N N/A 94 38 14 SE7 29.88S HX 90  
#WALLA WALLA 5E N/A 94 55 27 SW6 N/A HX 92  
#WALLA WALLA U N/A 92 54 28 CALM 29.93S HX 90  
#WHITMAN MISSIONN/A 92 56 30 W1 29.94F HX 90  

 
 
WAZ030-302010-  
BLUE MOUNTAINS...WASHINGTON  
 
CITY SKY/WX TMP DP RH WIND PRES REMARKS
 

 
 
ORZ009-041-WAZ024-302010-  
COLUMBIA RIVER GORGE  
 
CITY SKY/WX TMP DP RH WIND PRES REMARKS
 
HOOD RIVER AP SUNNY 84 57 40 W5 30.03S  
THE DALLES AP SUNNY 87 54 32 N17G28 29.98F  
#ARLINGTON AIRPON/A 91 51 26 W14 N/A HX 88  
#ARLINGTON HS N/A 93 51 24 CALM 29.83F HX 90  
#CELILO DOT N/A 91 59 34 NE2 N/A HX 90  
#MARYHILL N/A 88 49 26 NW2 N/A  
#MOSIER 1S N/A 81 48 32 N8 30.09S  
#MURDOCK N/A 83 61 48 NW12 29.98F  
#RUFUS DOT N/A 88 58 36 W17 N/A  
 

 
 
ORZ510-302010-  
NORTH CENTRAL OREGON  
 
CITY SKY/WX TMP DP RH WIND PRES REMARKS
 
#CHENOWITH 1W N/A 77 52 42 W17 N/A  
#COW CYN RST AREN/A 86 40 20 SW7 N/A  
#DUFUR 9E N/A 86 33 15 W8 29.98F  
#GRASS VALLEY 1SN/A 89 41 19 NW3 29.97S  
#KENT DOT N/A 89 41 19 W7 N/A  
#MAUPIN SCHOOL N/A 92 48 22 N2 30.03F HX 89  
#MORO SCHOOL N/A 88 52 29 W6 30.07S  
#SHANIKO 5WSW N/A 87 43 22 W8 N/A  
#SHANIKO 4NW N/A 84 39 20 NW5 30.18S  
#TYGH VALLEY 2NEN/A 88 50 27 N3 29.95F  
#WAPANITIA AIRPON/A 89 49 25 NW2 29.95F  
#WASCO DOT N/A 90 57 33 NW10 N/A HX 89  
#WASCO 5NE N/A 89 50 26 N5 29.94F  

 
 
ORZ511-302010-  
CENTRAL OREGON  
 
CITY SKY/WX TMP DP RH WIND PRES REMARKS
 
BEND AIRPORT PTCLDY 86 45 24 N3 30.17F  
MADRAS AIRPORT PTCLDY 86 43 22 NW7 30.13F  
REDMOND AIRPORT PTCLDY 89 43 20 N6 30.14F  
#BEND 6E N/A 86 45 24 CALM 29.86F  
#BEND 1SW N/A 84 48 29 N5 N/A  
#BEND-AWBREY N/A 83 51 33 CALM 29.95F  
#BEND-KIM LN N/A 87 51 29 NE1 30.15S  
#CULVER N/A 85 48 28 W2 30.09F  
#CULVER 1E N/A 86 45 24 CALM 30.14S  
#LAKE BILLY CHINN/A 85 1 4 NW7 30.12F  
#POWELL BUTTE 3EN/A 80 51 36 NW5 N/A  
#POWELL BUTTE N/A 89 54 31 NW2 29.79F  
#PRINEVILLE 3N N/A 86 54 34 CALM 29.92F  
 
 
ORZ509-302010-  
EAST SLOPES OF OREGON CASCADES  
 
CITY SKY/WX TMP DP RH WIND PRES REMARKS
 
#BLUE BOX PASS N/A 82 23 11 NW2 N/A  
#BLACK BUTTE RNCN/A 87 55 34 CALM 29.98F  
#CAMP SHERMAN N/A 87 54 32 CALM 30.01S  
#LA PINE DOT N/A 91 41 18 CALM N/A HX 87  
#LA PINE 4NW N/A 83 48 30 CALM 30.00F  
#LAVA BUTTE DOT N/A 84 52 33 NW1 N/A  
#SISTERS AIRPOR N/A 84 56 38 SE1 30.14F  
#SISTERS ODOT N/A 83 N/A N/A N1 N/A  
#SISTERS 3N N/A 82 50 33 CALM N/A  
#SUNRIVER N/A 85 51 31 SW2 29.88F  
#SUNRIVER AP N/A 83 49 31 CALM 29.96F  
#TUMALO 3W N/A 83 46 27 NE2 29.84F  
#WANOGA BUTTE D N/A 74 43 33 NE3 N/A  
 

 
 
ORZ044-302010-  
LOWER COLUMBIA BASIN...OREGON  
 
CITY SKY/WX TMP DP RH WIND PRES REMARKS
 
HERMISTON SUNNY 93 52 25 W8 29.98F HX 90  
#BOARDMAN SCHOOLN/A 90 54 30 W1 29.94S HX 88  
#BOARDMAN 3W N/A 98 65 34 SW2 29.65F HX 101  
#BOARDMAN 8SW N/A 93 51 24 SW9 29.93F HX 90  
#IONE SCHOOL N/A 91 44 20 SW3 30.00S HX 87  
#IRRIGON 4NW N/A 90 59 35 W6 N/A HX 89  
#UMATILLA SCHOOLN/A 93 68 44 W2 30.01S HX 97  
#UMATILLA N/A 89 59 37 CALM 29.94F  

 
 
ORZ507-302010-  
NORTHERN FOOTHILLS OF THE BLUES  
 
CITY SKY/WX TMP DP RH WIND PRES REMARKS
 
PENDLETON AIRPT SUNNY 93 45 19 VRB6 30.02F HX 89  
#ADAMS 3WNW N/A 93 47 21 SW7 29.91F HX 89  
#ATHENA N/A 92 48 22 CALM 29.94F HX 89  
#HELIX SCHOOL N/A 90 46 22 W3 29.92F HX 87  
#HELIX 3N N/A 90 43 20 SW6 30.02F HX 86  
#HOLDMAN 5SE N/A 91 50 25 SW2 30.03S HX 88  
#HOLDMAN 6E N/A 90 48 24 N2 29.75F HX 87  
#M-F FERNDALE N/A 96 60 30 CALM 29.98F HX 96  
#M-F GROVE ELEM N/A 94 50 23 CALM 30.00F HX 91  
#M-FREEWATER 5SEN/A 93 55 28 NE1 30.01F HX 91  
#PDT AQUATIC CTRN/A 91 53 28 CALM 29.95S HX 89  
#PENDLETON DNTN N/A 94 50 23 CALM 29.95F HX 91  
#PENDLETON 5NE N/A 95 52 24 CALM 29.97F HX 92  
#PDT SUNRIDGE N/A 94 50 23 CALM 30.02S HX 91  
#PENDLETON 7NW N/A 90 60 37 W2 27.76S HX 90  
#PILOT ROCK N/A 92 49 23 N1 30.05F HX 89  
#TUTUILLA N/A 94 57 29 CALM 29.88F HX 93  
#UMAPINE 2E N/A 94 57 29 N2 29.96S HX 93  
#WESTON SCHOOL N/A 90 42 19 W2 30.02F HX 86  
 

 
 
ORZ508-302010-  
SOUTHERN FOOTHILLS OF THE BLUES  
 
CITY SKY/WX TMP DP RH WIND PRES REMARKS
 
#AJAX N/A 90 36 15 NW5 30.00S HX 86  
#CONDON SCHOOL N/A 89 38 17 W2 30.07S  
#CONDON 5W N/A 86 35 16 NW6 30.12S  
#FOSSIL SCHOOL N/A 88 46 23 W5 30.07S  
#HEPPNER 4NE N/A 88 41 19 W6 29.91F  
#LEXINGTON 2SE N/A 94 45 19 CALM 29.99F HX 90  
#MIKKALO N/A 91 40 17 NW12 30.06S HX 87  
#OLEX 4N N/A 92 44 19 W12 29.99F HX 88  
#RUGGS 5NE N/A 95 27 9 CALM 30.30S HX 90  
#RUGGS 2SW N/A 90 41 18 E7 29.95F HX 86  
 

 
 
ORZ502-503-302010-  
BLUE MOUNTAINS  
 
CITY SKY/WX TMP DP RH WIND PRES REMARKS
 
MEACHAM SUNNY 87 44 22 CALM 30.18F  
#BATTLE MTN DOT N/A 85 56 37 NE2 N/A  
#HARDMAN 10S N/A 85 39 20 S1 30.24S  
#LADD CYN SMT N/A 87 46 24 W5 N/A  
#LADD CREEK ODOTN/A 88 57 35 N3 N/A  
#LONG CREEK HS N/A 85 43 23 CALM 30.11F  
#N POWDER DOT N/A 90 57 33 S3 N/A HX 89  
#PIKES PEAK N/A 81 47 30 SW9 27.99S  
#TOLLGATE 9W N/A 83 45 26 S3 N/A  
#TROY SCHOOL N/A 85 53 33 S1 29.80F  
#UKIAH N/A 87 48 26 S2 29.96F  
#WESTON 4E N/A 87 46 24 SW1 29.86S  

 
 
ORZ505-302010-  
JOHN DAY BASIN  
 
CITY SKY/WX TMP DP RH WIND PRES REMARKS
 
JOHN DAY SUNNY 90 38 16 E6 30.16F HX 86  
#MONUMENT HS N/A 72 55 55 CALM 29.81F  
#MT. VERNON 5SE N/A 85 44 24 NE1 30.14F  
#WINLOCK N/A 94 43 17 CALM 30.20F HX 90  

 
 
ORZ506-302010-  
OCHOCO AND JOHN DAY HIGHLANDS  
 
CITY SKY/WX TMP DP RH WIND PRES REMARKS
 
#BUCK CREEK DOT N/A 88 47 24 NW7 N/A  
#HORSE RIDGE DO N/A 86 39 19 N9 N/A  
#KEYES SMT DOT N/A 84 40 21 NW6 N/A  
#PINE MTN OBS N/A 75 41 29 CALM N/A  
#PRAIRIE CITY N/A 89 49 25 SW1 29.89F  
#SENECA 9NW N/A 85 41 21 W1 29.94F  

 
 
ORZ049-302010-  
GRANDE RONDE VALLEY  
 
CITY SKY/WX TMP DP RH WIND PRES REMARKS
 
LA GRANDE SUNNY 90 46 22 W5 30.11F HX 87  
#COVE N/A 88 56 34 CALM 30.03F  
#COVE SCHOOL N/A 89 53 29 CALM 30.09F  
#COVE 6NW N/A 88 51 28 CALM 29.97F  
#ELGIN 3N N/A 89 49 25 CALM 29.84S  
#ELGIN 1E N/A 88 53 30 CALM N/A  
#IMBLER SCHOOL N/A 88 50 27 CALM 30.06F  
#ISLAND CITY 4N N/A 95 57 28 CALM 29.88F HX 94  
#LADD CYN DOT N/A 90 55 31 NW3 N/A HX 88  
#UNION 1S N/A 88 51 28 NW3 29.85F  

 
 
ORZ050-302010-  
WALLOWA COUNTY  
 
CITY SKY/WX TMP DP RH WIND PRES REMARKS
 
#ENTERPRISE AP N/A 86 36 17 NW2 30.12F  
#ENTERPRISE HS N/A 87 47 25 CALM 30.16F  
#IMNAHA SCHOOL N/A 85 38 19 SW6 30.03F  
#IMNAHA 10S N/A 84 44 25 CALM 30.10F  
#JOSEPH 3N N/A 82 49 32 N1 30.20S  
#JOSEPH 3W N/A 83 43 24 E5 30.07S  
#LOSTINE N/A 86 47 26 CALM 29.75F  
#MT HOWARD 8000 N/A 68 35 29 N3 30.52R  
#PROMISE 1S N/A 82 52 35 S1 30.03F  
#SHEEP RDG 7000 N/A 68 36 31 CALM 29.93R  
#WALLOWA SCHOOL N/A 86 50 29 CALM 30.82F  
 

 
 
CLICK HERE TO GO TO PREVIOUS BULLETINS.

The Nexlab OR Page
The Nexlab WA Page Main Text Page